Home > Weather > Ely > Past weeks

Flag for United Kingdom Past Weather in Ely, England, United Kingdom — Yesterday and Last 2 Weeks

Now
46 °F

Fog.


Feels Like: 44 °F
Forecast: 47 / 65 °F
Wind: 5 mph from East

Location: Mildenhall Royal Air Force Base

Current Time: May 27, 2016 at 5:51:37 AM

Latest Report: May 27, 2016 at 5:03 AM


Visibility: 2 mi

Pressure: 30.03 "Hg

Humidity: 100%

Dew Point: 46 °F

Location of ElyLocation

Past Weather in Ely — Graph

°F

Ely Temperature Yesterday

Maximum temperature yesterday: 66 °F (at 4:58 PM)
Minimum temperature yesterday: 49 °F (at 12:58 AM)
Average temperature yesterday: 55 °F

High & Low Weather Summary for the Past Weeks

 TemperatureHumidityPressure
High75 °F (May 12, 2:58 PM)100% (May 12, 5:58 AM)30.20 "Hg (May 12, 5:58 AM)
Low36 °F (May 15, 2:58 AM)43% (May 12, 2:58 PM)29.59 "Hg (May 18, 4:03 PM)
Average55 °F82%29.93 "Hg
* Reported May 12 4:58 AM — May 27 4:03 AM, Ely, Weather by CustomWeather, © 2016

Note: Actual official high and low records may vary slightly from our data, if they occured in-between our weather recording intervals... More about our weather records

Advertising

Ely Weather History for the Previous 24 Hours

Scroll right to see more
 ConditionsComfort  
Time TempWeatherWind HumidityBarometerVisibility
4:03 AM
Fri, May 27
46 °FFog.5 mph100%30.04 "Hg3 mi
2:59 AM46 °FPassing clouds.7 mph100%30.03 "HgN/A
1:58 AM47 °FClear.3 mph100%30.05 "HgN/A
12:58 AM48 °FClear.6 mph100%30.04 "HgN/A
11:58 PM
Thu, May 26
50 °FOvercast.5 mph98%30.05 "HgN/A
10:58 PM50 °FPassing clouds.6 mph94%30.05 "HgN/A
9:58 PM53 °FScattered clouds.6 mph83%30.03 "HgN/A
9:03 PM57 °FScattered clouds.7 mph77%30.01 "HgN/A
8:58 PM57 °FPartly sunny.7 mph77%30.02 "HgN/A
7:58 PM61 °FPartly sunny.5 mph64%30.00 "HgN/A
6:58 PM63 °FSunny.8 mph59%29.99 "HgN/A
5:58 PM65 °FSunny.7 mph51%29.99 "HgN/A
4:58 PM66 °FSunny.5 mph53%30.00 "HgN/A
4:03 PM64 °FPassing clouds.3 mph52%30.00 "HgN/A
3:59 PM63 °FLight rain. Passing clouds.5 mph56%30.00 "HgN/A
2:58 PM62 °FSunny.5 mph60%30.01 "HgN/A
2:03 PM59 °FScattered clouds.5 mph68%30.01 "HgN/A
1:58 PM60 °FPartly sunny.3 mph67%30.02 "HgN/A
12:58 PM57 °FOvercast.2 mph77%30.03 "HgN/A
11:58 AM54 °FOvercast.2 mph83%30.03 "HgN/A
10:58 AM54 °FOvercast.2 mph88%30.03 "HgN/A
9:58 AM53 °FOvercast.3 mph99%30.02 "HgN/A
8:58 AM52 °FOvercast.3 mph100%30.02 "HgN/A
8:03 AM52 °FCloudy.3 mph100%30.01 "HgN/A
7:58 AM50 °FMore clouds than sun.5 mph100%30.02 "HgN/A
7:03 AM50 °FLow clouds.3 mph100%30.00 "HgN/A
5:58 AM50 °FLow clouds.2 mph100%30.00 "HgN/A
Weather by CustomWeather, © 2016

See weather overviewHow to use our weather pages